| time (UTC) | temp F | wind direction | speed MPH | gust MPH | rain 1hr in | rain 24hr in | rain mn in | humidity % | barometer mb |
| 20260508052056 | 43 | 357 | 2.0 | 5.0 | 0.00 | 0.00 | 0.00 | 79 | 1011.0 |
| 20260508051417 | 43 | 357 | 2.0 | 6.0 | 0.00 | 0.00 | 0.00 | 79 | 1011.2 |
| 20260508050736 | 0 | 356 | 4.0 | 6.0 | 0.00 | 0.00 | 0.00 | ||
| 20260508045944 | 42 | 358 | 4.0 | 7.0 | 0.00 | 0.00 | 0.00 | 80 | 1011.4 |
| 20260508045306 | 42 | 358 | 2.0 | 6.0 | 0.00 | 0.00 | 0.00 | 80 | 1011.4 |
| 20260508044625 | 0 | 356 | 4.0 | 3.0 | 0.00 | 0.00 | 0.00 | ||
| 20260508043720 | 42 | 357 | 4.0 | 5.0 | 0.00 | 0.00 | 0.00 | 80 | 1011.5 |
| 20260508043041 | 42 | 358 | 3.0 | 6.0 | 0.00 | 0.00 | 0.00 | 80 | 1011.4 |
| 20260508042401 | 0 | 356 | 3.0 | 5.0 | 0.00 | 0.00 | 0.00 | ||
| 20260508041611 | 42 | 358 | 0.0 | 0.0 | 0.00 | 0.00 | 0.00 | 80 | 1011.4 |
| 20260508040931 | 0 | 358 | 0.0 | 0.0 | 0.00 | 0.00 | 0.00 | ||
| 20260508040141 | 42 | 358 | 0.0 | 6.0 | 0.00 | 0.00 | 0.00 | 78 | 1011.3 |
| 20260508035501 | 0 | 358 | 3.0 | 6.0 | 0.00 | 0.00 | 0.00 | ||
| 20260508034713 | 0 | 357 | 0.0 | 5.0 | 0.00 | 0.00 | 0.00 | ||
| 20260508033921 | 44 | 358 | 3.0 | 6.0 | 0.00 | 0.00 | 0.00 | 71 | 1011.4 |
| 20260508033242 | 45 | 357 | 4.0 | 6.0 | 0.00 | 0.00 | 0.00 | 71 | 1011.4 |
| 20260508032602 | 0 | 356 | 5.0 | 5.0 | 0.00 | 0.00 | 0.00 | ||
| 20260508031811 | 45 | 358 | 2.0 | 5.0 | 0.00 | 0.00 | 0.00 | 70 | 1011.4 |
| 20260508031130 | 45 | 357 | 3.0 | 5.0 | 0.00 | 0.00 | 0.00 | 70 | 1011.4 |
| 20260508030450 | 45 | 358 | 1.0 | 4.0 | 0.00 | 0.00 | 0.00 | 68 | 1011.4 |
| 20260508025811 | 45 | 359 | 0.0 | 2.0 | 0.00 | 0.00 | 0.00 | 69 | 1011.3 |
| 20260508025131 | 44 | 357 | 0.0 | 0.0 | 0.00 | 0.00 | 0.00 | 68 | 1011.3 |
| 20260508024450 | 45 | 359 | 0.0 | 0.0 | 0.00 | 0.00 | 0.00 | 68 | 1011.3 |
| 20260508023811 | 45 | 358 | 0.0 | 2.0 | 0.00 | 0.00 | 0.00 | 68 | 1011.4 |
| 20260508023130 | 45 | 358 | 0.0 | 1.0 | 0.00 | 0.00 | 0.00 | 68 | 1011.2 |
| 20260508022451 | 0 | 359 | 0.0 | 3.0 | 0.00 | 0.00 | 0.00 | ||
| 20260508021628 | 0 | 356 | 0.0 | 4.0 | 0.00 | 0.00 | 0.00 | ||
| 20260508020840 | 0 | 358 | 0.0 | 2.0 | 0.00 | 0.00 | 0.00 | ||
| 20260508020050 | 45 | 357 | 4.0 | 9.0 | 0.00 | 0.00 | 0.00 | 67 | 1011.3 |
| 20260508015410 | 46 | 357 | 5.0 | 3.0 | 0.00 | 0.00 | 0.00 | 67 | 1011.3 |
| 20260508014622 | 46 | 356 | 3.0 | 10.0 | 0.00 | 0.00 | 0.00 | 66 | 1011.1 |
| 20260508013944 | 46 | 358 | 6.0 | 10.0 | 0.00 | 0.00 | 0.00 | 66 | 1011.0 |
| 20260508013302 | 0 | 356 | 5.0 | 7.0 | 0.00 | 0.00 | 0.00 | ||
| 20260508012513 | 0 | 357 | 7.0 | 4.0 | 0.00 | 0.00 | 0.00 | ||
| 20260508011723 | 0 | 356 | 6.0 | 8.0 | 0.00 | 0.00 | 0.00 | ||
| 20260508010932 | 47 | 357 | 8.0 | 14.0 | 0.00 | 0.00 | 0.00 | 66 | 1010.8 |
| 20260508010252 | 47 | 358 | 5.0 | 14.0 | 0.00 | 0.00 | 0.00 | 67 | 1010.7 |
| 20260508005612 | 48 | 356 | 7.0 | 11.0 | 0.00 | 0.00 | 0.00 | 62 | 1010.6 |
| 20260508004933 | 48 | 355 | 5.0 | 7.0 | 0.00 | 0.00 | 0.00 | 60 | 1010.4 |
| 20260508004253 | 47 | 356 | 2.0 | 7.0 | 0.00 | 0.00 | 0.00 | 60 | 1010.2 |
| 20260508003613 | 0 | 358 | 4.0 | 3.0 | 0.00 | 0.00 | 0.00 | ||
| 20260508002750 | 48 | 357 | 7.0 | 10.0 | 0.00 | 0.00 | 0.00 | 61 | 1010.0 |
| 20260508002111 | 48 | 357 | 6.0 | 8.0 | 0.00 | 0.00 | 0.00 | 63 | 1010.0 |
| 20260508001321 | 48 | 357 | 5.0 | 9.0 | 0.00 | 0.00 | 0.00 | 62 | 1009.9 |
| 20260508000640 | 48 | 358 | 6.0 | 5.0 | 0.00 | 0.00 | 0.00 | 62 | 1009.8 |
| 20260507235851 | 48 | 356 | 5.0 | 10.0 | 0.00 | 0.00 | 0.00 | 64 | 1009.8 |
| 20260507235211 | 48 | 357 | 7.0 | 10.0 | 0.00 | 0.00 | 0.00 | 60 | 1009.7 |
| 20260507234530 | 48 | 357 | 7.0 | 10.0 | 0.00 | 0.00 | 0.00 | 61 | 1009.7 |
| 20260507233850 | 48 | 359 | 6.0 | 10.0 | 0.00 | 0.00 | 0.00 | 62 | 1009.7 |
| 20260507233211 | 0 | 357 | 4.0 | 6.0 | 0.00 | 0.00 | 0.00 | ||
| 20260507232422 | 49 | 357 | 4.0 | 10.0 | 0.00 | 0.00 | 0.00 | 58 | 1009.6 |
| 20260507231743 | 0 | 355 | 6.0 | 5.0 | 0.00 | 0.00 | 0.00 | ||
| 20260507230842 | 49 | 358 | 7.0 | 10.0 | 0.00 | 0.00 | 0.00 | 58 | 1009.7 |
| 20260507230202 | 0 | 355 | 6.0 | 5.0 | 0.00 | 0.00 | 0.00 | ||
| 20260507225306 | 50 | 357 | 3.0 | 7.0 | 0.00 | 0.00 | 0.00 | 62 | 1009.6 |
| 20260507224625 | 50 | 357 | 3.0 | 6.0 | 0.00 | 0.00 | 0.00 | 60 | 1009.6 |
| 20260507223945 | 50 | 359 | 0.0 | 8.0 | 0.00 | 0.00 | 0.00 | 57 | 1009.5 |
| 20260507223305 | 50 | 356 | 4.0 | 8.0 | 0.00 | 0.00 | 0.00 | 56 | 1009.5 |
| 20260507222627 | 50 | 358 | 3.0 | 8.0 | 0.00 | 0.00 | 0.00 | 56 | 1009.5 |
| 20260507221947 | 50 | 357 | 5.0 | 8.0 | 0.00 | 0.00 | 0.00 | 61 | 1009.6 |
| 20260507221306 | 0 | 355 | 6.0 | 5.0 | 0.00 | 0.00 | 0.00 | ||
| 20260507220408 | 0 | 355 | 6.0 | 6.0 | 0.00 | 0.00 | 0.00 | ||
| 20260507215213 | 50 | 357 | 0.0 | 6.0 | 0.00 | 0.00 | 0.00 | 60 | 1009.5 |
| 20260507214533 | 52 | 357 | 3.0 | 8.0 | 0.00 | 0.00 | 0.00 | 58 | 1009.5 |
| 20260507213852 | 49 | 356 | 6.0 | 8.0 | 0.00 | 0.00 | 0.00 | 61 | 1009.4 |
| 20260507213213 | 0 | 355 | 5.0 | 6.0 | 0.00 | 0.00 | 0.00 | ||
| 20260507212415 | 52 | 358 | 2.0 | 8.0 | 0.00 | 0.00 | 0.00 | 57 | 1009.5 |
| 20260507211740 | 51 | 357 | 3.0 | 7.0 | 0.00 | 0.00 | 0.00 | 60 | 1009.5 |
| 20260507211056 | 0 | 357 | 5.0 | 4.0 | 0.00 | 0.00 | 0.00 | ||
| 20260507210151 | 0 | 355 | 5.0 | 4.0 | 0.00 | 0.00 | 0.00 | ||
| 20260507205403 | 0 | 357 | 5.0 | 5.0 | 0.00 | 0.00 | 0.00 | ||
| 20260507204458 | 0 | 357 | 6.0 | 8.0 | 0.00 | 0.00 | 0.00 | ||
| 20260507203712 | 52 | 353 | 5.0 | 3.0 | 0.00 | 0.00 | 0.00 | 56 | 1009.5 |
| 20260507202921 | 0 | 357 | 5.0 | 7.0 | 0.00 | 0.00 | 0.00 | ||
| 20260507201908 | 0 | 358 | 5.0 | 6.0 | 0.00 | 0.00 | 0.00 | ||
| 20260507201007 | 51 | 355 | 5.0 | 9.0 | 0.00 | 0.00 | 0.00 | 59 | 1009.6 |
| 20260507200327 | 51 | 357 | 6.0 | 9.0 | 0.00 | 0.00 | 0.00 | 57 | 1009.6 |
| 20260507195648 | 51 | 356 | 7.0 | 10.0 | 0.00 | 0.00 | 0.00 | 58 | 1009.7 |
| 20260507195007 | 0 | 357 | 5.0 | 6.0 | 0.00 | 0.00 | 0.00 | ||
| 20260507194218 | 51 | 357 | 6.0 | 10.0 | 0.00 | 0.00 | 0.00 | 59 | 1009.8 |
| 20260507193539 | 52 | 357 | 6.0 | 10.0 | 0.00 | 0.00 | 0.00 | 59 | 1010.0 |
| 20260507192859 | 52 | 356 | 7.0 | 10.0 | 0.00 | 0.00 | 0.00 | 57 | 1010.1 |
| 20260507192220 | 54 | 357 | 6.0 | 10.0 | 0.00 | 0.00 | 0.00 | 55 | 1010.1 |
| 20260507191541 | 53 | 354 | 6.0 | 6.0 | 0.00 | 0.00 | 0.00 | 56 | 1010.0 |
| 20260507190750 | 52 | 358 | 5.0 | 4.0 | 0.00 | 0.00 | 0.00 | 59 | 1010.0 |
| 20260507185957 | 0 | 356 | 5.0 | 9.0 | 0.00 | 0.00 | 0.00 | ||
| 20260507185206 | 52 | 357 | 7.0 | 10.0 | 0.00 | 0.00 | 0.00 | 58 | 1010.3 |
| 20260507184526 | 0 | 356 | 7.0 | 8.0 | 0.00 | 0.00 | 0.00 | ||
| 20260507183736 | 51 | 357 | 6.0 | 10.0 | 0.00 | 0.00 | 0.00 | 59 | 1010.3 |
| 20260507183056 | 51 | 356 | 7.0 | 10.0 | 0.00 | 0.00 | 0.00 | 59 | 1010.3 |
| 20260507182416 | 0 | 358 | 6.0 | 7.0 | 0.00 | 0.00 | 0.00 | ||
| 20260507181625 | 50 | 356 | 7.0 | 11.0 | 0.00 | 0.00 | 0.00 | 60 | 1010.2 |
| 20260507180946 | 50 | 357 | 7.0 | 10.0 | 0.00 | 0.00 | 0.00 | 58 | 1010.1 |
| 20260507180306 | 50 | 356 | 8.0 | 11.0 | 0.00 | 0.00 | 0.00 | 59 | 1010.2 |
| 20260507175625 | 51 | 355 | 7.0 | 11.0 | 0.00 | 0.00 | 0.00 | 58 | 1010.3 |
| 20260507174946 | 0 | 356 | 7.0 | 4.0 | 0.00 | 0.00 | 0.00 | ||
| 20260507174157 | 0 | 356 | 7.0 | 5.0 | 0.00 | 0.00 | 0.00 | ||
| 20260507173257 | 0 | 357 | 4.0 | 9.0 | 0.00 | 0.00 | 0.00 | ||
| 20260507172507 | 52 | 356 | 3.0 | 9.0 | 0.00 | 0.00 | 0.00 | 54 | 1010.7 |
| 20260507171827 | 0 | 355 | 5.0 | 3.0 | 0.00 | 0.00 | 0.00 | ||
| 20260507170926 | 50 | 356 | 6.0 | 9.0 | 0.00 | 0.00 | 0.00 | 56 | 1010.8 |
| 20260507170247 | 0 | 356 | 6.0 | 8.0 | 0.00 | 0.00 | 0.00 | ||
| 20260507165458 | 0 | 355 | 6.0 | 7.0 | 0.00 | 0.00 | 0.00 | ||
| 20260507164708 | 50 | 358 | 5.0 | 10.0 | 0.00 | 0.00 | 0.00 | 57 | 1010.9 |
| 20260507164029 | 0 | 355 | 7.0 | 6.0 | 0.00 | 0.00 | 0.00 | ||
| 20260507163126 | 50 | 356 | 5.0 | 9.0 | 0.00 | 0.00 | 0.00 | 59 | 1011.1 |
| 20260507162446 | 50 | 359 | 4.0 | 8.0 | 0.00 | 0.00 | 0.00 | 54 | 1011.2 |
| 20260507161807 | 0 | 357 | 6.0 | 6.0 | 0.00 | 0.00 | 0.00 | ||
| 20260507160905 | 50 | 357 | 4.0 | 7.0 | 0.00 | 0.00 | 0.00 | 57 | 1011.3 |
| 20260507160227 | 0 | 358 | 1.0 | 8.0 | 0.00 | 0.00 | 0.00 | ||
| 20260507155323 | 50 | 356 | 5.0 | 8.0 | 0.00 | 0.00 | 0.00 | 57 | 1011.5 |
| 20260507154645 | 0 | 357 | 0.0 | 7.0 | 0.00 | 0.00 | 0.00 | ||
| 20260507153857 | 0 | 357 | 2.0 | 7.0 | 0.00 | 0.00 | 0.00 | ||
| 20260507152950 | 50 | 357 | 2.0 | 7.0 | 0.00 | 0.00 | 0.00 | 56 | 1011.6 |
| 20260507152311 | 49 | 355 | 5.0 | 8.0 | 0.00 | 0.00 | 0.00 | 60 | 1011.6 |
| 20260507151631 | 0 | 359 | 2.0 | 8.0 | 0.00 | 0.00 | 0.00 | ||
| 20260507150840 | 49 | 357 | 1.0 | 7.0 | 0.00 | 0.00 | 0.00 | 57 | 1011.6 |
| 20260507150200 | 49 | 358 | 1.0 | 5.0 | 0.00 | 0.00 | 0.00 | 59 | 1011.6 |
| 20260507145520 | 49 | 358 | 0.0 | 0.0 | 0.00 | 0.00 | 0.00 | 61 | 1011.6 |
| 20260507144511 | 51 | 357 | 0.0 | 0.0 | 0.00 | 0.00 | 0.00 | 56 | 1011.6 |
| 20260507143841 | 52 | 359 | 0.0 | 0.0 | 0.00 | 0.00 | 0.00 | 55 | 1011.6 |
| 20260507143156 | 50 | 358 | 0.0 | 0.0 | 0.00 | 0.00 | 0.00 | 55 | 1011.6 |
| 20260507142511 | 50 | 357 | 0.0 | 4.0 | 0.00 | 0.00 | 0.00 | 55 | 1011.6 |
| 20260507141830 | 49 | 357 | 0.0 | 4.0 | 0.00 | 0.00 | 0.00 | 58 | 1011.6 |
| 20260507141151 | 0 | 357 | 0.0 | 5.0 | 0.00 | 0.00 | 0.00 | ||
| 20260507140401 | 50 | 356 | 1.0 | 5.0 | 0.00 | 0.00 | 0.00 | 55 | 1011.7 |
| 20260507135721 | 52 | 358 | 0.0 | 0.0 | 0.00 | 0.00 | 0.00 | 52 | 1011.8 |
| 20260507135041 | 52 | 356 | 0.0 | 0.0 | 0.00 | 0.00 | 0.00 | 54 | 1011.9 |
| 20260507134401 | 50 | 358 | 0.0 | 0.0 | 0.00 | 0.00 | 0.00 | 56 | 1011.9 |
| 20260507133720 | 52 | 357 | 0.0 | 0.0 | 0.00 | 0.00 | 0.00 | 57 | 1012.0 |
| 20260507133041 | 0 | 357 | 0.0 | 0.0 | 0.00 | 0.00 | 0.00 | ||
| 20260507132252 | 0 | 358 | 0.0 | 0.0 | 0.00 | 0.00 | 0.00 | ||
| 20260507131502 | 47 | 358 | 0.0 | 0.0 | 0.00 | 0.00 | 0.00 | 64 | 1011.9 |
| 20260507130822 | 48 | 358 | 0.0 | 0.0 | 0.00 | 0.00 | 0.00 | 63 | 1011.9 |
| 20260507130143 | 48 | 358 | 0.0 | 0.0 | 0.00 | 0.00 | 0.00 | 63 | 1011.9 |
| 20260507125502 | 46 | 357 | 0.0 | 0.0 | 0.00 | 0.00 | 0.00 | 66 | 1011.9 |
| 20260507124822 | 47 | 358 | 0.0 | 0.0 | 0.00 | 0.00 | 0.00 | 68 | 1012.0 |
| 20260507124142 | 0 | 358 | 0.0 | 0.0 | 0.00 | 0.00 | 0.00 | ||
| 20260507123246 | 0 | 356 | 0.0 | 0.0 | 0.00 | 0.00 | 0.00 | ||
| 20260507122456 | 0 | 357 | 0.0 | 0.0 | 0.00 | 0.00 | 0.00 | ||
| 20260507121552 | 0 | 358 | 0.0 | 0.0 | 0.00 | 0.00 | 0.00 | ||
| 20260507120758 | 46 | 360 | 0.0 | 0.0 | 0.00 | 0.00 | 0.00 | 67 | 1012.1 |
| 20260507120124 | 0 | 357 | 0.0 | 0.0 | 0.00 | 0.00 | 0.00 | ||
| 20260507115329 | 44 | 358 | 0.0 | 0.0 | 0.00 | 0.00 | 0.00 | 71 | 1012.2 |
| 20260507114644 | 43 | 357 | 0.0 | 0.0 | 0.00 | 0.00 | 0.00 | 72 | 1012.3 |
| 20260507114005 | 0 | 357 | 0.0 | 2.0 | 0.00 | 0.00 | 0.00 | ||
| 20260507112959 | 0 | 358 | 0.0 | 0.0 | 0.00 | 0.00 | 0.00 | ||
| 20260507112207 | 42 | 358 | 0.0 | 0.0 | 0.00 | 0.00 | 0.00 | 74 | 1012.2 |
| 20260507111528 | 0 | 359 | 0.0 | 0.0 | 0.00 | 0.00 | 0.00 | ||
| 20260507110629 | 0 | 357 | 0.0 | 0.0 | 0.00 | 0.00 | 0.00 | ||
| 20260507105824 | 41 | 357 | 0.0 | 0.0 | 0.00 | 0.00 | 0.00 | 77 | 1011.7 |
| 20260507105145 | 41 | 355 | 0.0 | 0.0 | 0.00 | 0.00 | 0.00 | 78 | 1011.5 |
| 20260507104504 | 41 | 357 | 0.0 | 0.0 | 0.00 | 0.00 | 0.00 | 79 | 1011.4 |
| 20260507103824 | 41 | 357 | 0.0 | 0.0 | 0.00 | 0.00 | 0.00 | 80 | 1011.4 |
| 20260507103144 | 40 | 358 | 0.0 | 0.0 | 0.00 | 0.00 | 0.00 | 80 | 1011.3 |
| 20260507102505 | 40 | 358 | 0.0 | 0.0 | 0.00 | 0.00 | 0.00 | 81 | 1011.1 |
| 20260507101824 | 40 | 358 | 0.0 | 0.0 | 0.00 | 0.00 | 0.00 | 80 | 1011.2 |
| 20260507101144 | 0 | 357 | 0.0 | 0.0 | 0.00 | 0.00 | 0.00 | ||
| 20260507100357 | 0 | 358 | 0.0 | 0.0 | 0.00 | 0.00 | 0.00 | ||
| 20260507095607 | 40 | 358 | 0.0 | 0.0 | 0.00 | 0.00 | 0.00 | 82 | 1011.4 |
| 20260507094927 | 40 | 357 | 0.0 | 0.0 | 0.00 | 0.00 | 0.00 | 83 | 1011.3 |
| 20260507094247 | 0 | 358 | 0.0 | 0.0 | 0.00 | 0.00 | 0.00 | ||
| 20260507093456 | 0 | 357 | 0.0 | 0.0 | 0.00 | 0.00 | 0.00 | ||
| 20260507092707 | 40 | 357 | 0.0 | 0.0 | 0.00 | 0.00 | 0.00 | 84 | 1011.3 |
| 20260507092028 | 0 | 356 | 0.0 | 0.0 | 0.00 | 0.00 | 0.00 | ||
| 20260507091240 | 40 | 357 | 0.0 | 0.0 | 0.00 | 0.00 | 0.00 | 84 | 1011.4 |
| 20260507090453 | 0 | 357 | 0.0 | 0.0 | 0.00 | 0.00 | 0.00 | ||
| 20260507085703 | 40 | 358 | 0.0 | 0.0 | 0.00 | 0.00 | 0.00 | 84 | 1011.3 |
| 20260507085023 | 40 | 357 | 0.0 | 0.0 | 0.00 | 0.00 | 0.00 | 84 | 1011.2 |
| 20260507084343 | 40 | 358 | 0.0 | 0.0 | 0.00 | 0.00 | 0.00 | 84 | 1011.2 |
| 20260507083704 | 40 | 358 | 0.0 | 0.0 | 0.00 | 0.00 | 0.00 | 85 | 1011.2 |
| 20260507083024 | 40 | 358 | 0.0 | 0.0 | 0.00 | 0.00 | 0.00 | 85 | 1011.3 |
| 20260507082344 | 40 | 358 | 0.0 | 0.0 | 0.00 | 0.00 | 0.00 | 86 | 1011.4 |
| 20260507081704 | 40 | 357 | 0.0 | 0.0 | 0.00 | 0.00 | 0.00 | 85 | 1011.4 |
| 20260507081024 | 41 | 357 | 0.0 | 0.0 | 0.00 | 0.00 | 0.00 | 84 | 1011.5 |
| 20260507080344 | 42 | 358 | 0.0 | 0.0 | 0.00 | 0.00 | 0.00 | 84 | 1011.6 |
| 20260507075703 | 42 | 357 | 0.0 | 0.0 | 0.00 | 0.00 | 0.00 | 84 | 1011.6 |
| 20260507075024 | 42 | 357 | 0.0 | 3.0 | 0.00 | 0.00 | 0.00 | 84 | 1011.6 |
| 20260507074344 | 0 | 357 | 0.0 | 3.0 | 0.00 | 0.00 | 0.00 | ||
| 20260507073556 | 42 | 358 | 0.0 | 0.0 | 0.00 | 0.00 | 0.00 | 84 | 1011.4 |
| 20260507072915 | 42 | 356 | 0.0 | 0.0 | 0.00 | 0.00 | 0.00 | 84 | 1011.4 |
| 20260507072236 | 0 | 358 | 0.0 | 0.0 | 0.00 | 0.00 | 0.00 | ||
| 20260507071446 | 0 | 356 | 0.0 | 3.0 | 0.00 | 0.00 | 0.00 | ||
| 20260507070659 | 42 | 357 | 0.0 | 0.0 | 0.00 | 0.00 | 0.00 | 83 | 1011.3 |
| 20260507070017 | 42 | 359 | 0.0 | 4.0 | 0.00 | 0.00 | 0.00 | 83 | 1011.3 |
| 20260507065337 | 43 | 357 | 0.0 | 4.0 | 0.00 | 0.00 | 0.00 | 83 | 1011.3 |
| 20260507064656 | 43 | 356 | 0.0 | 5.0 | 0.00 | 0.00 | 0.00 | 82 | 1011.4 |
| 20260507064018 | 0 | 354 | 1.0 | 5.0 | 0.00 | 0.00 | 0.00 | ||
| 20260507063229 | 43 | 357 | 0.0 | 4.0 | 0.00 | 0.00 | 0.00 | 80 | 1011.8 |
| 20260507062549 | 43 | 358 | 0.0 | 3.0 | 0.00 | 0.00 | 0.00 | 81 | 1011.9 |
| 20260507061910 | 44 | 358 | 0.0 | 3.0 | 0.00 | 0.00 | 0.00 | 80 | 1011.9 |
| 20260507061230 | 44 | 355 | 0.0 | 3.0 | 0.00 | 0.00 | 0.00 | 81 | 1011.9 |
| 20260507060329 | 44 | 359 | 0.0 | 3.0 | 0.00 | 0.00 | 0.00 | 79 | 1011.8 |
| 20260507055650 | 44 | 357 | 0.0 | 0.0 | 0.00 | 0.00 | 0.00 | 78 | 1011.9 |
| 20260507055009 | 44 | 358 | 0.0 | 0.0 | 0.00 | 0.00 | 0.00 | 80 | 1011.8 |
| 20260507054330 | 44 | 359 | 0.0 | 0.0 | 0.00 | 0.00 | 0.00 | 81 | 1011.9 |
| 20260507053212 | 0 | 357 | 0.0 | 3.0 | 0.00 | 0.00 | 0.00 | ||
| 20260507052420 | 44 | 356 | 0.0 | 0.0 | 0.00 | 0.00 | 0.00 | 81 | 1012.1 |